GW5308 Weather Reports


time (UTC)temp
C
wind
direction
speed
KPH
gust
KPH
rain 1hr
cm
rain 24hr
cm
rain mn
cm
humidity
%
barometer
mb
20260507201013 36 213 0.0 4.8 0.00 0.00 0.00 41 1011.4
20260507200515 36 237 1.6 6.4 0.00 0.00 0.00 39 1011.6
20260507200032 36 250 0.0 6.4 0.00 0.00 0.00 41 1011.6
20260507195514 36 211 1.6 8.0 0.00 0.00 0.00 41 1011.7
20260507195014 36 234 1.6 8.0 0.00 0.00 0.00 41 1011.8
20260507194537 36 191 0.0 8.0 0.00 0.00 0.00 40 1011.8
20260507194013 36 131 0.0 8.0 0.00 0.00 0.00 42 1011.9
20260507193514 36 201 1.6 8.0 0.00 0.00 0.00 42 1011.8
20260507193032 36 257 1.6 6.4 0.00 0.00 0.00 42 1011.9
20260507192511 36 0 0.0 4.8 0.00 0.00 0.00 42 1012.1
20260507192011 36 0 0.0 4.8 0.00 0.00 0.00 42 1012.2
20260507191531 36 0 0.0 9.7 0.00 0.00 0.00 42 1012.1
20260507191015 36 68 0.0 9.7 0.00 0.00 0.00 43 1012.2
20260507190515 36 248 1.6 9.7 0.00 0.00 0.00 42 1012.2
20260507190036 36 200 1.6 8.0 0.00 0.00 0.00 42 1012.2
20260507185513 36 240 1.6 6.4 0.00 0.00 0.00 42 1012.3
20260507185012 36 135 1.6 6.4 0.00 0.00 0.00 43 1012.5
20260507184534 35 304 1.6 4.8 0.00 0.00 0.00 44 1012.7
20260507184014 36 183 0.0 4.8 0.00 0.00 0.00 43 1012.7
20260507183514 35 94 1.6 4.8 0.00 0.00 0.00 44 1012.9
20260507183031 35 30 1.6 6.4 0.00 0.00 0.00 42 1013.0
20260507182514 35 123 1.6 6.4 0.00 0.00 0.00 43 1013.0
20260507182015 35 201 1.6 6.4 0.00 0.00 0.00 43 1013.2
20260507181531 36 83 1.6 6.4 0.00 0.00 0.00 42 1013.3
20260507181017 35 218 1.6 6.4 0.00 0.00 0.00 42 1013.5
20260507180514 36 297 1.6 8.0 0.00 0.00 0.00 42 1013.7
20260507180036 36 233 0.0 8.0 0.00 0.00 0.00 45 1013.6
20260507175522 35 115 1.6 6.4 0.00 0.00 0.00 44 1013.7
20260507175015 35 233 1.6 6.4 0.00 0.00 0.00 45 1013.7
20260507174546 35 217 1.6 6.4 0.00 0.00 0.00 45 1013.6
20260507174018 35 177 0.0 6.4 0.00 0.00 0.00 46 1013.7
20260507173514 35 210 1.6 6.4 0.00 0.00 0.00 47 1013.7
20260507173032 35 207 1.6 6.4 0.00 0.00 0.00 48 1013.8
20260507172517 35 139 1.6 6.4 0.00 0.00 0.00 49 1013.8
20260507172021 35 116 0.0 6.4 0.00 0.00 0.00 49 1013.9
20260507171545 35 354 1.6 6.4 0.00 0.00 0.00 51 1013.9
20260507171016 35 247 1.6 6.4 0.00 0.00 0.00 51 1013.8
20260507170515 35 212 0.0 6.4 0.00 0.00 0.00 50 1013.8
20260507170032 35 143 1.6 4.8 0.00 0.00 0.00 51 1013.8
20260507165521 34 214 1.6 4.8 0.00 0.00 0.00 52 1013.7
20260507165017 34 251 0.0 4.8 0.00 0.00 0.00 54 1013.8
20260507164537 34 212 1.6 4.8 0.00 0.00 0.00 52 1013.8
20260507164015 33 191 1.6 8.0 0.00 0.00 0.00 53 1013.9
20260507163516 33 221 0.0 8.0 0.00 0.00 0.00 53 1013.9
20260507163036 33 226 1.6 4.8 0.00 0.00 0.00 55 1014.0
20260507162516 33 204 1.6 6.4 0.00 0.00 0.00 54 1014.1
20260507162016 33 221 1.6 8.0 0.00 0.00 0.00 56 1014.1
20260507161538 33 204 1.6 8.0 0.00 0.00 0.00 56 1014.1
20260507161018 33 0 1.6 6.4 0.00 0.00 0.00 57 1014.2
20260507160516 33 120 1.6 4.8 0.00 0.00 0.00 58 1014.3
20260507160044 33 120 0.0 4.8 0.00 0.00 0.00 60 1014.3
20260507155516 33 0 0.0 4.8 0.00 0.00 0.00 59 1014.2
20260507155017 32 249 1.6 4.8 0.00 0.00 0.00 59 1014.3
20260507154536 32 197 0.0 3.2 0.00 0.00 0.00 60 1014.4
20260507154016 32 228 1.6 4.8 0.00 0.00 0.00 59 1014.6
20260507153516 33 92 0.0 4.8 0.00 0.00 0.00 60 1014.5
20260507153031 32 275 0.0 4.8 0.00 0.00 0.00 61 1014.5
20260507152517 32 203 0.0 4.8 0.00 0.00 0.00 62 1014.5
20260507152015 32 274 0.0 8.0 0.00 0.00 0.00 65 1014.4
20260507151536 31 217 1.6 8.0 0.00 0.00 0.00 64 1014.3
20260507151014 32 223 0.0 3.2 0.00 0.00 0.00 65 1014.5
20260507150514 31 229 0.0 3.2 0.00 0.00 0.00 64 1014.6
20260507150037 31 0 0.0 3.2 0.00 0.00 0.00 66 1014.5
20260507145514 31 0 1.6 8.0 0.00 0.00 0.00 67 1014.6
20260507145020 31 163 1.6 8.0 0.00 0.00 0.00 66 1014.6
20260507144535 31 224 1.6 4.8 0.00 0.00 0.00 66 1014.8
20260507144014 31 219 0.0 3.2 0.00 0.00 0.00 67 1014.7
20260507143513 30 207 1.6 3.2 0.00 0.00 0.00 66 1014.8
20260507143032 30 225 0.0 3.2 0.00 0.00 0.00 68 1014.9
20260507142517 30 207 0.0 3.2 0.00 0.00 0.00 69 1014.9
20260507142019 30 219 0.0 4.8 0.00 0.00 0.00 70 1014.9
20260507141533 29 210 0.0 4.8 0.00 0.00 0.00 70 1014.9
20260507141018 29 248 1.6 4.8 0.00 0.00 0.00 70 1014.8
20260507140516 29 240 0.0 3.2 0.00 0.00 0.00 73 1014.8
20260507140044 29 0 0.0 3.2 0.00 0.00 0.00 72 1014.9
20260507135516 28 273 0.0 3.2 0.00 0.00 0.00 73 1014.9
20260507135021 28 0 0.0 3.2 0.00 0.00 0.00 74 1014.9
20260507134531 28 0 0.0 3.2 0.00 0.00 0.00 75 1014.9
20260507134016 27 0 1.6 4.8 0.00 0.00 0.00 75 1014.9
20260507133516 27 221 1.6 4.8 0.00 0.00 0.00 76 1014.7
20260507133036 27 230 0.0 6.4 0.00 0.00 0.00 76 1014.8
20260507132514 27 0 0.0 6.4 0.00 0.00 0.00 77 1014.9
20260507132014 27 230 0.0 4.8 0.00 0.00 0.00 78 1014.8
20260507131604 26 0 0.0 0.0 0.00 0.00 0.00 77 1014.7
20260507131014 26 0 0.0 0.0 0.00 0.00 0.00 79 1014.7
20260507130516 26 0 0.0 0.0 0.00 0.00 0.00 80 1014.7
20260507130031 25 0 0.0 0.0 0.00 0.00 0.00 83 1014.6
20260507125514 25 0 0.0 0.0 0.00 0.00 0.00 84 1014.6
20260507125014 24 0 0.0 0.0 0.00 0.00 0.00 85 1014.7
20260507124533 23 0 0.0 0.0 0.00 0.00 0.00 87 1014.8
20260507124017 23 0 0.0 0.0 0.00 0.00 0.00 90 1014.9
20260507123517 22 0 0.0 0.0 0.00 0.00 0.00 93 1014.8
20260507123041 21 0 0.0 0.0 0.00 0.00 0.00 95 1015.0
20260507122518 21 0 0.0 0.0 0.00 0.00 0.00 98 1014.9
20260507122013 20 0 0.0 0.0 0.00 0.00 0.00 98 1015.0
20260507121533 20 0 0.0 0.0 0.00 0.00 0.00 99 1015.0
20260507121014 20 0 0.0 0.0 0.00 0.00 0.00 99 1015.1
20260507120516 19 0 0.0 0.0 0.00 0.00 0.00 99 1015.0
20260507120038 19 0 0.0 0.0 0.00 0.00 0.00 99 1015.0
20260507115514 18 0 0.0 0.0 0.00 0.00 0.00 99 1015.0
20260507115014 18 0 0.0 0.0 0.00 0.00 0.00 99 1014.9
20260507114533 18 0 0.0 0.0 0.00 0.00 0.00 100 1015.0
20260507114018 18 0 0.0 0.0 0.00 0.00 0.00 100 1014.9
20260507113513 18 0 0.0 0.0 0.00 0.00 0.00 100 1014.9
20260507113100 18 0 0.0 0.0 0.00 0.00 0.00 100 1014.9
20260507112518 17 0 0.0 0.0 0.00 0.00 0.00 100 1014.8
20260507112014 17 0 0.0 0.0 0.00 0.00 0.00 99 1014.7
20260507111533 17 0 0.0 0.0 0.00 0.00 0.00 99 1014.7
20260507111014 17 0 0.0 0.0 0.00 0.00 0.00 99 1014.6
20260507110513 17 0 0.0 0.0 0.00 0.00 0.00 99 1014.6
20260507110037 17 0 0.0 0.0 0.00 0.00 0.00 99 1014.4
20260507105515 16 0 0.0 0.0 0.00 0.00 0.00 99 1014.4
20260507105012 16 0 0.0 0.0 0.00 0.00 0.00 99 1014.2
20260507104531 16 0 0.0 0.0 0.00 0.00 0.00 99 1014.2
20260507104014 16 0 0.0 0.0 0.00 0.00 0.00 99 1014.2
20260507103513 16 0 0.0 0.0 0.00 0.00 0.00 98 1014.2
20260507103033 16 0 0.0 0.0 0.00 0.00 0.00 98 1014.3
20260507102513 16 0 0.0 0.0 0.00 0.00 0.00 98 1014.2
20260507102017 16 0 0.0 0.0 0.00 0.00 0.00 98 1014.3
20260507101530 16 0 0.0 0.0 0.00 0.00 0.00 98 1014.1
20260507101014 16 0 0.0 0.0 0.00 0.00 0.00 98 1013.9
20260507100513 16 0 0.0 0.0 0.00 0.00 0.00 98 1014.0
20260507100041 16 0 0.0 0.0 0.00 0.00 0.00 97 1014.2
20260507095514 16 0 0.0 0.0 0.00 0.00 0.00 97 1014.1
20260507095014 16 0 0.0 0.0 0.00 0.00 0.00 98 1014.0
20260507094533 16 0 0.0 0.0 0.00 0.00 0.00 97 1014.1
20260507094010 16 0 0.0 0.0 0.00 0.00 0.00 98 1014.0
20260507093515 16 0 0.0 0.0 0.00 0.00 0.00 97 1014.1
20260507093035 16 0 0.0 0.0 0.00 0.00 0.00 97 1014.1
20260507092514 16 0 0.0 0.0 0.00 0.00 0.00 97 1014.0
20260507092013 16 0 0.0 0.0 0.00 0.00 0.00 97 1013.9
20260507091540 16 0 0.0 0.0 0.00 0.00 0.00 97 1013.9
20260507091014 16 0 0.0 0.0 0.00 0.00 0.00 97 1013.9
20260507090515 16 0 0.0 0.0 0.00 0.00 0.00 97 1013.7
20260507090032 16 0 0.0 0.0 0.00 0.00 0.00 96 1013.6
20260507085514 16 0 0.0 0.0 0.00 0.00 0.00 96 1013.6
20260507085012 16 0 0.0 0.0 0.00 0.00 0.00 96 1013.6
20260507084546 16 0 0.0 0.0 0.00 0.00 0.00 96 1013.6
20260507084015 16 0 0.0 0.0 0.00 0.00 0.00 96 1013.5
20260507083513 16 0 0.0 0.0 0.00 0.00 0.00 96 1013.6
20260507083032 16 0 0.0 0.0 0.00 0.00 0.00 96 1013.7
20260507082514 16 0 0.0 0.0 0.00 0.00 0.00 95 1013.7
20260507082016 17 0 0.0 0.0 0.00 0.00 0.00 95 1013.8
20260507081533 17 0 0.0 0.0 0.00 0.00 0.00 95 1013.8
20260507081017 17 0 0.0 0.0 0.00 0.00 0.00 95 1013.8
20260507080511 17 0 0.0 0.0 0.00 0.00 0.00 95 1013.7
20260507080032 17 0 0.0 0.0 0.00 0.00 0.00 95 1013.6
20260507075513 17 0 0.0 0.0 0.00 0.00 0.00 94 1013.5
20260507075019 17 0 0.0 0.0 0.00 0.00 0.00 94 1013.5
20260507074534 17 0 0.0 0.0 0.00 0.00 0.00 93 1013.5
20260507074014 17 0 0.0 0.0 0.00 0.00 0.00 94 1013.6
20260507073516 17 0 0.0 0.0 0.00 0.00 0.00 94 1013.6
20260507073033 17 0 0.0 0.0 0.00 0.00 0.00 94 1013.6
20260507072514 17 0 0.0 0.0 0.00 0.00 0.00 93 1013.7
20260507072015 17 0 0.0 0.0 0.00 0.00 0.00 92 1013.8
20260507071535 17 0 0.0 0.0 0.00 0.00 0.00 91 1013.9
20260507071014 17 0 0.0 0.0 0.00 0.00 0.00 91 1013.9
20260507070511 17 0 0.0 0.0 0.00 0.00 0.00 90 1014.0
20260507070032 17 0 0.0 0.0 0.00 0.00 0.00 90 1014.1
20260507065513 18 0 0.0 0.0 0.00 0.00 0.00 89 1014.1
20260507065016 18 0 0.0 0.0 0.00 0.00 0.00 90 1014.2
20260507064540 18 0 0.0 0.0 0.00 0.00 0.00 90 1014.2
20260507064012 18 0 0.0 0.0 0.00 0.00 0.00 88 1014.3
20260507063513 18 0 0.0 0.0 0.00 0.00 0.00 87 1014.5
20260507063030 18 0 0.0 0.0 0.00 0.00 0.00 87 1014.5
20260507062513 18 0 0.0 0.0 0.00 0.00 0.00 87 1014.5
20260507062015 19 0 0.0 0.0 0.00 0.00 0.00 86 1014.7
20260507061536 19 0 0.0 0.0 0.00 0.00 0.00 86 1014.8
20260507061013 19 0 0.0 0.0 0.00 0.00 0.00 85 1014.9
20260507060513 19 0 0.0 0.0 0.00 0.00 0.00 84 1015.0
20260507060038 20 0 0.0 0.0 0.00 0.00 0.00 84 1015.0
20260507055516 20 0 0.0 0.0 0.00 0.00 0.00 84 1015.0
20260507055015 20 0 0.0 0.0 0.00 0.00 0.00 84 1014.9
20260507054540 20 0 0.0 0.0 0.00 0.00 0.00 83 1014.9
20260507054015 20 0 0.0 0.0 0.00 0.00 0.00 83 1015.1
20260507053517 20 0 0.0 0.0 0.00 0.00 0.00 82 1015.0
20260507053037 20 0 0.0 0.0 0.00 0.00 0.00 82 1015.0
20260507052519 21 0 0.0 0.0 0.00 0.00 0.00 81 1015.1
20260507052014 21 0 0.0 0.0 0.00 0.00 0.00 80 1015.2
20260507051535 21 0 0.0 0.0 0.00 0.00 0.00 80 1015.2
20260507051018 21 0 0.0 0.0 0.00 0.00 0.00 80 1015.1
20260507050513 21 0 0.0 0.0 0.00 0.00 0.00 80 1015.1
20260507050058 21 0 0.0 0.0 0.00 0.00 0.00 80 1015.0
20260507045516 21 0 0.0 0.0 0.00 0.00 0.00 80 1015.1
20260507045015 21 0 0.0 0.0 0.00 0.00 0.00 81 1015.0
20260507044545 21 0 0.0 0.0 0.00 0.00 0.00 81 1014.9
20260507044015 21 0 0.0 0.0 0.00 0.00 0.00 82 1015.0
20260507043515 21 0 0.0 0.0 0.00 0.00 0.00 82 1015.0
20260507043036 21 0 0.0 0.0 0.00 0.00 0.00 83 1015.0
20260507042516 20 0 0.0 0.0 0.00 0.00 0.00 83 1015.2
20260507042017 20 0 0.0 0.0 0.00 0.00 0.00 84 1015.4
20260507041534 20 0 0.0 0.0 0.00 0.00 0.00 84 1015.3
20260507041014 20 0 0.0 0.0 0.00 0.00 0.00 84 1015.5
20260507040516 20 0 0.0 0.0 0.00 0.00 0.00 85 1015.4
20260507040033 20 0 0.0 0.0 0.00 0.00 0.00 85 1015.3
20260507035513 20 0 0.0 0.0 0.00 0.00 0.00 85 1015.2
20260507035014 20 0 0.0 0.0 0.00 0.00 0.00 85 1015.2
20260507034539 20 0 0.0 0.0 0.00 0.00 0.00 85 1015.3
20260507034018 20 0 0.0 0.0 0.00 0.00 0.00 85 1015.1
20260507033515 20 0 0.0 0.0 0.00 0.00 0.00 86 1015.1
20260507033041 20 0 0.0 0.0 0.00 0.00 0.00 85 1015.1
20260507032516 20 0 0.0 0.0 0.00 0.00 0.00 84 1015.3
20260507032016 20 0 0.0 0.0 0.00 0.00 0.00 83 1015.2
20260507031534 20 0 0.0 0.0 0.00 0.00 0.00 83 1015.3
20260507031016 20 0 0.0 0.0 0.00 0.00 0.00 82 1015.2
20260507030515 21 0 0.0 0.0 0.00 0.00 0.00 82 1015.2
20260507030037 21 0 0.0 0.0 0.00 0.00 0.00 81 1015.4
20260507025515 21 0 0.0 0.0 0.00 0.00 0.00 81 1015.3
20260507025018 21 0 0.0 0.0 0.00 0.00 0.00 79 1015.3
20260507024541 21 0 0.0 0.0 0.00 0.00 0.00 78 1015.4
20260507024013 22 0 0.0 0.0 0.00 0.00 0.00 78 1015.4
20260507023514 22 0 0.0 0.0 0.00 0.00 0.00 76 1015.3
20260507023032 22 0 0.0 0.0 0.00 0.00 0.00 75 1015.3
20260507022512 22 0 0.0 0.0 0.00 0.00 0.00 74 1015.2
20260507022015 23 0 0.0 0.0 0.00 0.00 0.00 73 1015.1
20260507021547 23 0 0.0 1.6 0.00 0.00 0.00 72 1015.2
20260507021011 23 0 0.0 1.6 0.00 0.00 0.00 71 1015.1
20260507020514 23 0 0.0 1.6 0.00 0.00 0.00 70 1015.1
20260507020034 24 254 0.0 1.6 0.00 0.00 0.00 70 1015.2
20260507015512 24 0 0.0 1.6 0.00 0.00 0.00 69 1015.1
20260507015014 24 0 0.0 1.6 0.00 0.00 0.00 68 1014.9
20260507014532 25 0 0.0 1.6 0.00 0.00 0.00 68 1014.9
20260507014017 25 0 0.0 3.2 0.00 0.00 0.00 67 1014.7
20260507013511 25 0 0.0 3.2 0.00 0.00 0.00 66 1014.6
20260507013035 25 252 0.0 4.8 0.00 0.00 0.00 66 1014.5
20260507012514 25 0 0.0 4.8 0.00 0.00 0.00 66 1014.5
20260507012013 25 0 0.0 4.8 0.00 0.00 0.00 66 1014.4
20260507011536 25 232 0.0 3.2 0.00 0.00 0.00 66 1014.3
20260507011014 25 258 0.0 8.0 0.00 0.00 0.00 66 1014.2
20260507010515 25 259 0.0 8.0 0.00 0.00 0.00 66 1014.2
20260507010042 25 76 0.0 8.0 0.00 0.00 0.00 66 1014.2
20260507005512 26 0 0.0 6.4 0.00 0.00 0.00 67 1014.1
20260507005017 26 250 0.0 6.4 0.00 0.00 0.00 68 1014.1
20260507004531 26 0 1.6 6.4 0.00 0.00 0.00 69 1014.3
20260507004014 26 0 0.0 1.6 0.00 0.00 0.00 71 1014.2
20260507003514 26 211 0.0 1.6 0.00 0.00 0.00 71 1014.2
20260507003031 26 293 0.0 3.2 0.00 0.00 0.00 70 1014.1
20260507002514 26 0 0.0 3.2 0.00 0.00 0.00 69 1013.9
20260507002015 26 304 0.0 3.2 0.00 0.00 0.00 69 1013.9
20260507001533 27 281 0.0 6.4 0.00 0.00 0.00 68 1014.0
20260507001015 27 253 0.0 6.4 0.00 0.00 0.00 68 1013.9
20260507000522 27 144 0.0 6.4 0.00 0.00 0.00 68 1013.8
20260507000035 27 265 0.0 3.2 0.00 0.00 0.00 67 1013.8
20260506235513 27 280 0.0 3.2 0.00 0.00 0.00 67 1013.8
20260506235016 27 30 1.6 4.8 0.00 0.00 0.00 66 1013.8
20260506234534 28 0 0.0 4.8 0.00 0.00 0.00 65 1013.9
20260506234013 28 311 1.6 4.8 0.00 0.00 0.00 65 1013.9
20260506233516 28 292 0.0 4.8 0.00 0.00 0.00 65 1013.8
20260506233032 28 340 0.0 3.2 0.00 0.00 0.00 64 1013.8
20260506232520 28 198 0.0 3.2 0.00 0.00 0.00 64 1013.9
20260506232015 29 300 0.0 4.8 0.00 0.00 0.00 63 1013.9
20260506231534 29 262 0.0 4.8 0.00 0.00 0.00 62 1013.8
20260506231014 29 29 1.6 8.0 0.00 0.00 0.00 62 1013.7
20260506230514 29 0 1.6 8.0 0.00 0.00 0.00 61 1013.6
20260506230035 30 345 1.6 8.0 0.00 0.00 0.00 61 1013.6
20260506225518 30 326 1.6 4.8 0.00 0.00 0.00 61 1013.4
20260506225015 30 0 0.0 6.4 0.00 0.00 0.00 61 1013.5
20260506224535 30 112 1.6 6.4 0.00 0.00 0.00 60 1013.5
20260506224016 30 320 3.2 6.4 0.00 0.00 0.00 59 1013.6
20260506223516 30 253 1.6 6.4 0.00 0.00 0.00 59 1013.6
20260506223032 31 354 1.6 9.7 0.00 0.00 0.00 58 1013.7
20260506222514 31 18 1.6 9.7 0.00 0.00 0.00 57 1013.5
20260506222016 31 304 1.6 8.0 0.00 0.00 0.00 57 1013.6
20260506221533 31 2 1.6 8.0 0.00 0.00 0.00 56 1013.7
20260506221016 31 337 1.6 9.7 0.00 0.00 0.00 57 1013.7
20260506220516 32 2 1.6 9.7 0.00 0.00 0.00 56 1013.7
20260506220036 32 47 3.2 9.7 0.00 0.00 0.00 55 1013.7
20260506215515 33 342 1.6 4.8 0.00 0.00 0.00 53 1013.7
20260506215014 33 270 1.6 4.8 0.00 0.00 0.00 48 1013.7
20260506214532 34 243 0.0 3.2 0.00 0.00 0.00 43 1013.7
20260506214015 33 242 0.0 3.2 0.00 0.00 0.00 44 1013.7
20260506213514 34 240 0.0 3.2 0.00 0.00 0.00 43 1013.7
20260506213034 33 0 0.0 3.2 0.00 0.00 0.00 44 1013.7
20260506212515 34 0 0.0 1.6 0.00 0.00 0.00 44 1013.8
20260506212020 34 289 0.0 1.6 0.00 0.00 0.00 43 1013.7
20260506211534 34 0 0.0 1.6 0.00 0.00 0.00 43 1013.7
20260506211015 34 243 0.0 4.8 0.00 0.00 0.00 44 1013.7
20260506210516 34 0 0.0 4.8 0.00 0.00 0.00 43 1013.7
20260506210037 34 214 0.0 3.2 0.00 0.00 0.00 44 1013.7
20260506205514 34 0 0.0 3.2 0.00 0.00 0.00 44 1013.7
20260506205016 34 253 0.0 3.2 0.00 0.00 0.00 42 1013.7
20260506204547 34 211 0.0 3.2 0.00 0.00 0.00 44 1013.7
20260506204017 33 163 0.0 1.6 0.00 0.00 0.00 44 1013.8
20260506203518 33 241 0.0 3.2 0.00 0.00 0.00 43 1013.8
20260506203034 33 242 0.0 3.2 0.00 0.00 0.00 45 1013.9
20260506202514 33 246 0.0 3.2 0.00 0.00 0.00 43 1013.9
20260506202014 33 0 0.0 3.2 0.00 0.00 0.00 44 1014.0
20260506201535 33 240 0.0 3.2 0.00 0.00 0.00 43 1014.0